WIF1W ENAL-ENAL

Flight info

Callsign WIF1W
Flight time 0h 21m
Altitude 4000
Route VFR CIRCUITS 4000 OR BELOW
Aircraft DH8D/M-SDE2E3FGRY/H

Departure

Time 2026-04-26 15:17
Airport Ålesund Airport (ENAL)

Arrival

Time 2026-04-26 15:38
Airport Ålesund Airport (ENAL)
Time Latitude Longitude Altitude Speed Heading
2026-04-26 15:02 62.55875 6.11312 74 ft 0 kts 154°
2026-04-26 15:15 62.55875 6.11313 74 ft 0 kts 154°
2026-04-26 15:15 62.55869 6.11309 73 ft 2 kts 218°
2026-04-26 15:15 62.55874 6.11219 72 ft 7 kts 287°
2026-04-26 15:16 62.55896 6.11069 72 ft 12 kts 288°
2026-04-26 15:16 62.55923 6.10867 71 ft 15 kts 285°
2026-04-26 15:16 62.55964 6.10716 70 ft 7 kts 12°
2026-04-26 15:16 62.55980 6.10759 71 ft 0 kts 62°
2026-04-26 15:17 62.56052 6.11094 73 ft 73 kts 62°
2026-04-26 15:17 62.56269 6.12080 65 ft 136 kts 65°
2026-04-26 15:17 62.56713 6.14898 987 ft 163 kts 87°
2026-04-26 15:17 62.56212 6.17170 1650 ft 191 kts 131°
2026-04-26 15:18 62.55143 6.19052 2099 ft 207 kts 149°
2026-04-26 15:18 62.53705 6.19202 2471 ft 224 kts 204°
2026-04-26 15:18 62.52599 6.17193 2623 ft 201 kts 231°
2026-04-26 15:18 62.51757 6.14804 2790 ft 203 kts 234°
2026-04-26 15:19 62.50902 6.12153 3009 ft 223 kts 237°
2026-04-26 15:19 62.50008 6.09352 3340 ft 226 kts 237°
2026-04-26 15:19 62.49136 6.06628 3605 ft 219 kts 237°
2026-04-26 15:19 62.48259 6.03928 3713 ft 221 kts 236°
2026-04-26 15:20 62.47362 6.01196 3780 ft 220 kts 236°
2026-04-26 15:20 62.46500 5.98585 3729 ft 215 kts 236°
2026-04-26 15:20 62.45673 5.95849 3715 ft 215 kts 244°
2026-04-26 15:20 62.45432 5.92749 3752 ft 210 kts 281°
2026-04-26 15:21 62.46128 5.90062 3730 ft 203 kts 318°
2026-04-26 15:21 62.47301 5.88545 3583 ft 195 kts 345°
2026-04-26 15:21 62.48605 5.88537 3401 ft 189 kts 12°
2026-04-26 15:21 62.49822 5.89513 2983 ft 187 kts 31°
2026-04-26 15:22 62.50940 5.90956 2512 ft 186 kts 29°
2026-04-26 15:22 62.51940 5.92591 2213 ft 177 kts 46°
2026-04-26 15:22 62.52523 5.94849 1974 ft 171 kts 63°
2026-04-26 15:22 62.53003 5.97088 1627 ft 158 kts 63°
2026-04-26 15:23 62.53456 5.99172 1397 ft 147 kts 64°
2026-04-26 15:23 62.53887 6.01144 985 ft 141 kts 63°
2026-04-26 15:23 62.54277 6.02967 832 ft 124 kts 64°
2026-04-26 15:23 62.54646 6.04632 627 ft 122 kts 64°
2026-04-26 15:24 62.55008 6.06286 440 ft 122 kts 64°
2026-04-26 15:24 62.55373 6.07968 224 ft 121 kts 63°
2026-04-26 15:24 62.55724 6.09587 62 ft 118 kts 64°
2026-04-26 15:24 62.56072 6.11205 122 ft 139 kts 67°
2026-04-26 15:25 62.56485 6.13320 799 ft 165 kts 70°
2026-04-26 15:25 62.56534 6.14999 1411 ft 177 kts 101°
2026-04-26 15:25 62.55417 6.17750 2023 ft 194 kts 146°
2026-04-26 15:25 62.54171 6.18906 2164 ft 203 kts 169°
2026-04-26 15:26 62.52779 6.18430 2184 ft 205 kts 212°
2026-04-26 15:26 62.51886 6.16127 2276 ft 201 kts 239°
2026-04-26 15:26 62.51153 6.13527 2423 ft 202 kts 241°
2026-04-26 15:26 62.50432 6.10838 2668 ft 211 kts 241°
2026-04-26 15:27 62.49650 6.08124 2880 ft 216 kts 239°
2026-04-26 15:27 62.48847 6.05407 3027 ft 213 kts 239°
2026-04-26 15:27 62.48049 6.02690 3114 ft 214 kts 240°
2026-04-26 15:27 62.47277 5.99909 3137 ft 216 kts 240°
2026-04-26 15:28 62.46517 5.97177 3177 ft 207 kts 240°
2026-04-26 15:28 62.46090 5.94328 3178 ft 194 kts 268°
2026-04-26 15:28 62.46394 5.91608 3122 ft 185 kts 301°
2026-04-26 15:28 62.47228 5.89623 3004 ft 175 kts 328°
2026-04-26 15:29 62.48355 5.88805 2810 ft 172 kts 358°
2026-04-26 15:29 62.49530 5.89203 2470 ft 172 kts 20°
2026-04-26 15:29 62.51385 5.92007 1804 ft 164 kts 43°
2026-04-26 15:30 62.52724 5.95900 1218 ft 159 kts 59°
2026-04-26 15:30 62.53214 5.98065 1126 ft 165 kts 65°
2026-04-26 15:30 62.53697 6.00335 1169 ft 160 kts 63°
2026-04-26 15:31 62.54165 6.02413 932 ft 149 kts 63°
2026-04-26 15:31 62.55034 6.06389 399 ft 140 kts 64°
2026-04-26 15:31 62.55451 6.08334 164 ft 141 kts 64°
2026-04-26 15:32 62.56092 6.11286 113 ft 148 kts 65°
2026-04-26 15:32 62.56609 6.14227 1185 ft 169 kts 71°
2026-04-26 15:32 62.56831 6.16775 2079 ft 185 kts 91°
2026-04-26 15:33 62.56170 6.19326 2631 ft 214 kts 138°
2026-04-26 15:33 62.54848 6.20931 3025 ft 227 kts 157°
2026-04-26 15:33 62.53267 6.21009 3102 ft 230 kts 198°
2026-04-26 15:33 62.51999 6.18997 2990 ft 231 kts 230°
2026-04-26 15:34 62.51048 6.16225 2852 ft 232 kts 236°
2026-04-26 15:34 62.50160 6.13276 2836 ft 229 kts 239°
2026-04-26 15:34 62.49361 6.10419 3029 ft 217 kts 240°
2026-04-26 15:34 62.48628 6.07639 3133 ft 213 kts 244°
2026-04-26 15:35 62.48006 6.04714 3039 ft 209 kts 256°
2026-04-26 15:35 62.48033 6.01703 2816 ft 196 kts 289°
2026-04-26 15:35 62.48636 5.99141 2335 ft 194 kts 308°
2026-04-26 15:35 62.49575 5.97214 2002 ft 180 kts 333°
2026-04-26 15:36 62.50707 5.96657 1813 ft 155 kts
2026-04-26 15:36 62.51687 5.97315 1725 ft 149 kts 30°
2026-04-26 15:36 62.52518 5.98675 1584 ft 141 kts 38°
2026-04-26 15:36 62.53213 6.00060 1278 ft 133 kts 43°
2026-04-26 15:37 62.53828 6.01585 1029 ft 136 kts 52°
2026-04-26 15:37 62.54341 6.03246 774 ft 128 kts 57°
2026-04-26 15:37 62.54714 6.04991 565 ft 130 kts 65°
2026-04-26 15:37 62.55101 6.06712 376 ft 125 kts 62°
2026-04-26 15:38 62.55465 6.08407 174 ft 120 kts 63°
2026-04-26 15:38 62.55808 6.09971 58 ft 107 kts 63°
2026-04-26 15:38 62.56045 6.11053 72 ft 49 kts 64°
2026-04-26 15:38 62.56084 6.11348 73 ft 15 kts 132°
2026-04-26 15:39 62.55989 6.11405 74 ft 13 kts 200°
2026-04-26 15:39 62.55926 6.11281 73 ft 12 kts 241°
2026-04-26 15:39 62.55897 6.11128 72 ft 10 kts 259°
2026-04-26 15:39 62.55901 6.11042 72 ft 3 kts 283°
2026-04-26 15:40 62.55901 6.11041 72 ft 0 kts 283°
2026-04-26 15:40 62.55901 6.11039 72 ft 0 kts 284°
2026-04-26 15:46 62.55911 6.10953 71 ft 0 kts 285°
2026-04-26 15:54 62.55912 6.10945 71 ft 5 kts 285°
2026-04-26 15:54 62.55934 6.10795 70 ft 15 kts 302°
2026-04-26 15:54 62.56015 6.10915 71 ft 29 kts 64°
2026-04-26 15:54 62.56126 6.11448 72 ft 38 kts 73°
2026-04-26 15:55 62.56161 6.11583 70 ft 0 kts 242°
2026-04-26 15:55 62.56134 6.11461 72 ft 48 kts 246°
2026-04-26 15:55 62.55835 6.10083 104 ft 140 kts 248°
2026-04-26 15:55 62.55417 6.08079 933 ft 154 kts 249°
2026-04-26 15:56 62.55016 6.05841 1840 ft 167 kts 264°
2026-04-26 15:56 62.55448 6.03534 2480 ft 183 kts 321°
2026-04-26 15:56 62.56655 6.03280 3168 ft 192 kts 24°
2026-04-26 15:56 62.57681 6.05426 3356 ft 226 kts 53°
2026-04-26 15:57 62.58425 6.08557 3485 ft 239 kts 68°
2026-04-26 15:57 62.58836 6.12129 3243 ft 246 kts 76°
2026-04-26 15:57 62.59182 6.15778 3230 ft 242 kts 77°
2026-04-26 15:57 62.59386 6.18114 3299 ft 237 kts 78°
2026-04-26 15:58 62.59756 6.23009 3499 ft 251 kts 80°
2026-04-26 15:58 62.60056 6.26701 3518 ft 248 kts 78°
2026-04-26 15:58 62.60385 6.30318 3480 ft 238 kts 76°
2026-04-26 15:58 62.60759 6.33767 3470 ft 230 kts 75°
2026-04-26 15:59 62.61093 6.37150 3412 ft 232 kts 77°
2026-04-26 15:59 62.61437 6.40639 3395 ft 245 kts 77°
2026-04-26 15:59 62.61773 6.44251 3420 ft 243 kts 76°
2026-04-26 15:59 62.62126 6.47870 3135 ft 245 kts 76°
2026-04-26 16:00 62.62551 6.51398 3000 ft 239 kts 71°
2026-04-26 16:00 62.63093 6.54804 2835 ft 236 kts 69°
2026-04-26 16:00 62.63555 6.58178 2754 ft 235 kts 72°
2026-04-26 16:00 62.64023 6.61655 2723 ft 240 kts 71°
2026-04-26 16:01 62.64529 6.65115 2735 ft 242 kts 71°
2026-04-26 16:01 62.65088 6.68535 2602 ft 237 kts 68°
2026-04-26 16:01 62.65651 6.71828 2437 ft 235 kts 70°
2026-04-26 16:01 62.66199 6.75084 2278 ft 223 kts 69°
2026-04-26 16:02 62.66729 6.78250 2255 ft 219 kts 68°
2026-04-26 16:02 62.67300 6.81269 2296 ft 214 kts 67°
2026-04-26 16:02 62.67851 6.84282 2214 ft 219 kts 66°
2026-04-26 16:02 62.68234 6.86365 2206 ft 225 kts 68°
2026-04-26 16:03 62.68888 6.90714 2456 ft 227 kts 73°
2026-04-26 16:03 62.69298 6.94098 2433 ft 235 kts 73°
2026-04-26 16:03 62.69733 6.97548 2458 ft 236 kts 71°
2026-04-26 16:03 62.70220 7.00968 2279 ft 241 kts 70°
2026-04-26 16:04 62.70770 7.04494 2100 ft 243 kts 69°
2026-04-26 16:04 62.71352 7.07881 1927 ft 233 kts 67°
2026-04-26 16:04 62.71955 7.11012 1612 ft 217 kts 65°
2026-04-26 16:04 62.72514 7.13940 1294 ft 204 kts 68°
2026-04-26 16:05 62.72975 7.16828 971 ft 193 kts 69°
2026-04-26 16:05 62.73369 7.19484 771 ft 177 kts 72°
2026-04-26 16:05 62.73577 7.21990 603 ft 163 kts 81°
2026-04-26 16:05 62.73696 7.24417 471 ft 152 kts 81°
2026-04-26 16:06 62.73826 7.26601 354 ft 138 kts 77°
2026-04-26 16:06 62.73960 7.28643 389 ft 130 kts 79°
2026-04-26 16:06 62.73979 7.30450 622 ft 124 kts 93°
2026-04-26 16:06 62.73999 7.32319 720 ft 121 kts 66°
2026-04-26 16:07 62.74634 7.33245 557 ft 124 kts 358°
2026-04-26 16:07 62.75305 7.32258 619 ft 121 kts 295°
2026-04-26 16:07 62.75138 7.30536 246 ft 125 kts 243°
2026-04-26 16:07 62.74878 7.28840 86 ft 114 kts 253°
2026-04-26 16:08 62.74668 7.27420 19 ft 72 kts 249°
2026-04-26 16:08 62.74571 7.26843 19 ft 53 kts 251°
2026-04-26 16:08 62.74511 7.26466 19 ft 2 kts 152°
2026-04-26 16:08 62.74542 7.26673 19 ft 20 kts 70°
2026-04-26 16:09 62.74617 7.27141 18 ft 36 kts 71°
2026-04-26 16:09 62.74688 7.27595 20 ft 27 kts 70°
2026-04-26 16:09 62.74730 7.27943 20 ft 15 kts 80°
2026-04-26 16:09 62.74744 7.27943 20 ft 3 kts 274°
2026-04-26 16:10 62.74740 7.27914 20 ft 0 kts 251°
2026-04-26 16:10 62.74738 7.27905 20 ft 11 kts 251°
2026-04-26 16:10 62.74571 7.26847 19 ft 126 kts 250°
2026-04-26 16:10 62.74212 7.24669 312 ft 172 kts 249°
2026-04-26 16:11 62.73780 7.21957 789 ft 209 kts 254°
2026-04-26 16:11 62.73317 7.18779 1366 ft 225 kts 254°
2026-04-26 16:11 62.72845 7.15443 1783 ft 233 kts 255°
2026-04-26 16:11 62.72362 7.12033 2068 ft 244 kts 253°
2026-04-26 16:12 62.71860 7.08395 2405 ft 249 kts 256°
2026-04-26 16:12 62.71401 7.04822 3020 ft 245 kts 256°
2026-04-26 16:12 62.70444 6.97608 4630 ft 254 kts 254°
2026-04-26 16:13 62.69962 6.94003 5722 ft 246 kts 256°
2026-04-26 16:13 62.69521 6.90546 6875 ft 240 kts 256°
2026-04-26 16:13 62.69013 6.87007 7736 ft 248 kts 255°
2026-04-26 16:13 62.68479 6.83440 8575 ft 253 kts 256°
2026-04-26 16:14 62.67954 6.79816 9595 ft 252 kts 257°
2026-04-26 16:14 62.67422 6.76240 10066 ft 243 kts 256°
2026-04-26 16:14 62.66265 6.69217 9869 ft 261 kts 255°
2026-04-26 16:15 62.65631 6.65269 9958 ft 290 kts 255°
2026-04-26 16:15 62.64957 6.61058 10002 ft 290 kts 255°
2026-04-26 16:15 62.64241 6.57020 8961 ft 292 kts 255°
2026-04-26 16:16 62.63747 6.48621 7508 ft 266 kts 277°
2026-04-26 16:16 62.63860 6.44711 6827 ft 262 kts 272°
2026-04-26 16:16 62.63885 6.40747 5842 ft 266 kts 276°
2026-04-26 16:16 62.64169 6.36823 5083 ft 262 kts 283°
2026-04-26 16:17 62.64449 6.32933 4337 ft 259 kts 275°
2026-04-26 16:17 62.64129 6.29169 3560 ft 260 kts 245°
2026-04-26 16:17 62.62856 6.26504 2970 ft 252 kts 211°
2026-04-26 16:17 62.61313 6.24899 2305 ft 250 kts 202°
2026-04-26 16:18 62.59749 6.23271 1678 ft 244 kts 212°
2026-04-26 16:18 62.57539 6.18294 571 ft 227 kts 250°
2026-04-26 16:19 62.56463 6.13000 112 ft 172 kts 246°
2026-04-26 16:19 62.56019 6.10926 71 ft 144 kts 244°
2026-04-26 16:19 62.55282 6.07634 364 ft 150 kts 242°
2026-04-26 16:20 62.54003 6.06398 646 ft 178 kts 160°
2026-04-26 16:20 62.53315 6.11488 1291 ft 207 kts 64°
2026-04-26 16:20 62.53891 6.14210 1295 ft 187 kts 63°
2026-04-26 16:21 62.54458 6.16571 1402 ft 170 kts 60°
2026-04-26 16:21 62.55031 6.18726 1510 ft 158 kts 56°
2026-04-26 16:21 62.55619 6.20755 1431 ft 158 kts 57°
2026-04-26 16:21 62.56188 6.22750 1430 ft 154 kts 56°
2026-04-26 16:22 62.56795 6.24650 1361 ft 153 kts 52°
2026-04-26 16:22 62.57531 6.26284 1282 ft 151 kts 28°
2026-04-26 16:22 62.58561 6.26530 1127 ft 150 kts 352°
2026-04-26 16:22 62.59579 6.26226 1121 ft 147 kts 352°
2026-04-26 16:23 62.60601 6.25928 1010 ft 149 kts 351°
2026-04-26 16:23 62.61614 6.25632 1057 ft 148 kts 352°
2026-04-26 16:23 62.62635 6.25409 1337 ft 147 kts 359°
2026-04-26 16:23 62.63531 6.26409 1466 ft 157 kts 56°
2026-04-26 16:24 62.63525 6.28762 1679 ft 168 kts 121°
2026-04-26 16:24 62.62463 6.29791 1831 ft 185 kts 187°
2026-04-26 16:24 62.61424 6.28391 1752 ft 181 kts 227°
2026-04-26 16:24 62.60731 6.26094 1680 ft 180 kts 244°
2026-04-26 16:25 62.60169 6.23644 1557 ft 183 kts 245°
2026-04-26 16:25 62.59546 6.21259 1178 ft 179 kts 236°
2026-04-26 16:25 62.58751 6.19421 996 ft 156 kts 222°
2026-04-26 16:25 62.57959 6.18039 828 ft 135 kts 221°
2026-04-26 16:26 62.57305 6.16681 508 ft 126 kts 234°
2026-04-26 16:26 62.57031 6.15617 342 ft 116 kts 246°
2026-04-26 16:26 62.56579 6.13518 171 ft 116 kts 246°
2026-04-26 16:26 62.56249 6.11986 59 ft 100 kts 246°
2026-04-26 16:27 62.56110 6.11500 72 ft 11 kts 158°
2026-04-26 16:27 62.56060 6.11549 72 ft 5 kts 163°
2026-04-26 16:27 62.56016 6.11567 73 ft 7 kts 165°
2026-04-26 16:27 62.55961 6.11618 72 ft 6 kts 155°
2026-04-26 16:28 62.55944 6.11635 72 ft 0 kts 155°